TITAN 3C TRANSTAGE DEB, 43282

Orbit data source: Space-Track

TITAN 3C TRANSTAGE DEB, 43282 is space debris in GEO originally from a launch on Sun, 09 Feb 1969 UTC launched from the Air Force Eastern Test Range (AFETR). Debris objects in space refer to the collection of defunct objects orbiting the Earth. Examples of debris include non-operational satellites, rocket bodies, and fragments generated from explosions, collisions, or faulty payload assembly.

Not visible in the next 10 days
Identifier
43282, 1969-013C
Orbit
GEO
Country
Flag of USUS
Related business
Manufacturer
Martin Marietta
Mission
Spacecraft
Bus & Motor
Unknown
Mass
Unknown
Launch date (UTC)
1969-02-09 (57 years ago)
Launch vehicle
Unknown
Launch site
Air Force Eastern Test Range (AFETR)
Object type
Payload
Rocket body
Debris
Shape & HBR
Unknown shape, 1.1 m
Radar Cross Section
RCS unknown

Expand to show TLE details & history
Last TLE update: 12 hours ago

TLE from 12 hours ago
0 TITAN 3C TRANSTAGE DEB
1 43282U 69013C   26035.20375609 -.00000172  00000-0  00000+0 0  9996
2 43282   1.8398  56.8195 0285680 234.6164 123.1811  0.91409748 26376
Epoch: 2026-02-04T04:53Z
TLE epoch observation values (Epoch: 2026-02-04T04:53:24.526Z)
Latitude
Longitude
-150.37049°
Altitude
39,194.559 km
Speed
2.933 km/s
True Right ascension
03h 49m 25s
True Declination
0° 00' 00"
Sunlit
Object was in daylight at epoch
Visualization orbit readout
Latitude
Unknown
Longitude
Unknown
Altitude
Unknown
Speed
Unknown
Apparent Right ascension
Unknown
Apparent Declination
Unknown
Sunlit
N/A
Visualization observer readout
Local Sidereal Time
19:04:43
Azimuth
Unknown
Elevation
Unknown
Doppler factor
Unknown
Orbital elements
Apogee altitude
39,751.809 km
Perigee altitude
37,189.333 km
Semi-major axis
44,848.708 km
Eccentricity
0.02857
Inclination
1.8398°
RAAN
56.8195°
Arg. of periapsis
234.6164°
True anomaly
125.86742°
Mean anomaly
123.1811°
Eccentric anomaly
124.52957°
Mean motion
0.22852 °/min
Orbital period
1,575.38 mins
BSTAR
0
Loading maneuver chart data...
Computing Atmospheric mass density...

Documentation

Showing up to 5 results
|